Location: Newark
(43.4306°N, 0.3089°E)
Time: 17:45:04
(UTC+00:00)

Vanguard 3 - Pass Details

Date: 27 August 2019
Orbit: 508 x 3262 km, 33.3° (Epoch: 13 October)

Event Time Altitude Azimuth Distance (km) Brightness Sun altitude
Rises 19:06:01 0° 263° (W) 4,111 12.1 -4.8°
Reaches altitude 10° 19:10:00 10° 250° (WSW) 2,686 10.7 -5.5°
Maximum altitude 19:14:28 21° 202° (SSW) 1,578 8.7 -6.2°
Drops below altitude 10° 19:17:48 10° 151° (SSE) 1,941 8.7 -6.8°
Enters shadow 19:18:57 - 141° (SE) 2,277 8.9 -7.0°
Sets 19:20:10 0° 134° (SE) 2,694 - -7.2°
